TimeCST,TemperatureF,Dew PointF,Humidity,Sea Level PressureIn,VisibilityMPH,Wind Direction,Wind SpeedMPH,Gust SpeedMPH,PrecipitationIn,Events,Conditions,WindDirDegrees,DateUTC
12:52 AM,33.1,28.9,85,29.90,5.0,NNW,6.9,-,N/A,,Overcast,340,2013-02-27 06:52:00
1:52 AM,33.1,28.9,85,29.94,5.0,WNW,8.1,-,N/A,,Overcast,300,2013-02-27 07:52:00
2:52 AM,32.0,28.0,85,29.94,5.0,NNW,13.8,-,N/A,,Overcast,340,2013-02-27 08:52:00
3:52 AM,32.0,27.0,82,29.95,5.0,North,-9999.0,-,N/A,,Haze,0,2013-02-27 09:52:00
4:52 AM,30.9,28.0,89,29.96,5.0,North,-9999.0,-,N/A,,Overcast,0,2013-02-27 10:52:00
5:08 AM,30.2,26.6,86,29.94,5.0,NW,8.1,-,N/A,,Overcast,320,2013-02-27 11:08:00
5:52 AM,30.9,27.0,85,29.96,4.0,WNW,8.1,-,N/A,,Overcast,290,2013-02-27 11:52:00
6:36 AM,30.2,26.6,86,29.96,5.0,NW,11.5,-,N/A,,Overcast,310,2013-02-27 12:36:00
6:52 AM,30.9,27.0,85,29.99,5.0,NW,9.2,-,N/A,,Overcast,310,2013-02-27 12:52:00
7:31 AM,30.2,26.6,86,29.98,2.0,NW,12.7,-,0.00,Snow,Light Snow,310,2013-02-27 13:31:00
7:34 AM,30.2,26.6,86,29.98,1.8,NW,12.7,-,0.00,Snow,Light Snow,310,2013-02-27 13:34:00
7:45 AM,30.2,28.4,93,29.99,1.0,NW,9.2,-,0.00,Snow,Light Snow,310,2013-02-27 13:45:00
7:52 AM,30.9,28.0,89,30.01,1.2,NW,11.5,-,0.00,Snow,Light Snow,310,2013-02-27 13:52:00
7:56 AM,30.2,28.4,93,29.99,1.8,WNW,9.2,-,0.00,Snow,Light Snow,300,2013-02-27 13:56:00
8:03 AM,32.0,28.4,87,29.99,2.5,WNW,10.4,-,0.00,,Overcast,300,2013-02-27 14:03:00
8:05 AM,32.0,28.4,87,29.99,3.0,NW,10.4,-,0.00,,Overcast,310,2013-02-27 14:05:00
8:17 AM,32.0,28.4,87,30.00,3.0,WNW,11.5,-,0.00,,Overcast,300,2013-02-27 14:17:00
8:31 AM,32.0,28.4,87,30.01,4.0,WNW,15.0,18.4,0.00,,Overcast,300,2013-02-27 14:31:00
8:52 AM,32.0,27.0,82,30.03,5.0,NW,13.8,-,0.00,,Haze,310,2013-02-27 14:52:00
9:29 AM,33.8,26.6,75,30.01,6.0,WNW,13.8,-,N/A,,Haze,300,2013-02-27 15:29:00
9:52 AM,34.0,28.0,79,30.03,6.0,NW,11.5,-,N/A,,Haze,310,2013-02-27 15:52:00
10:52 AM,35.1,28.0,76,30.04,6.0,NW,15.0,-,N/A,,Haze,310,2013-02-27 16:52:00
11:52 AM,34.0,26.1,73,30.06,8.0,NW,17.3,23.0,N/A,,Overcast,320,2013-02-27 17:52:00
12:52 PM,33.1,26.1,75,30.06,9.0,NW,18.4,23.0,N/A,,Overcast,310,2013-02-27 18:52:00
1:36 PM,37.4,28.4,70,30.03,10.0,WNW,16.1,23.0,N/A,,Scattered Clouds,300,2013-02-27 19:36:00
1:52 PM,37.0,28.0,70,30.05,10.0,NW,16.1,21.9,N/A,,Partly Cloudy,310,2013-02-27 19:52:00
2:22 PM,37.4,28.4,70,30.04,10.0,WNW,19.6,25.3,N/A,,Mostly Cloudy,300,2013-02-27 20:22:00
2:47 PM,37.4,28.4,70,30.05,10.0,NW,16.1,21.9,N/A,,Scattered Clouds,310,2013-02-27 20:47:00
2:52 PM,39.0,28.0,65,30.07,10.0,WNW,17.3,24.2,N/A,,Scattered Clouds,300,2013-02-27 20:52:00
4:52 PM,39.0,27.0,62,30.08,10.0,WNW,16.1,21.9,N/A,,Clear,300,2013-02-27 22:52:00
5:52 PM,37.9,26.1,62,30.09,10.0,NW,10.4,19.6,N/A,,Clear,310,2013-02-27 23:52:00
6:52 PM,35.1,26.1,70,30.11,10.0,West,8.1,-,N/A,,Clear,280,2013-02-28 00:52:00
7:52 PM,36.0,26.1,67,30.12,10.0,WNW,9.2,-,N/A,,Clear,300,2013-02-28 01:52:00
8:52 PM,36.0,26.1,67,30.12,10.0,NW,13.8,23.0,N/A,,Clear,310,2013-02-28 02:52:00
9:52 PM,35.1,26.1,70,30.14,10.0,NW,11.5,19.6,N/A,,Clear,320,2013-02-28 03:52:00
10:52 PM,34.0,26.1,73,30.15,10.0,WNW,10.4,-,N/A,,Clear,300,2013-02-28 04:52:00
11:52 PM,34.0,26.1,73,30.13,10.0,NW,15.0,-,N/A,,Clear,320,2013-02-28 05:52:00